Change the Weather History Date:

Wednesday, October 31, 2012

  Actual Average Record
Temperature  
Mean Temperature 58 °F 57 °F  
Max Temperature 63 °F 66 °F 78 °F (1999)
Min Temperature 52 °F 48 °F 40 °F (2002)
Degree Days  
Heating Degree Days 7    
Month to date heating degree days 146  
Since 1 July heating degree days 675  
Cooling Degree Days 0    
Month to date cooling degree days 26  
Year to date cooling degree days 26  
Growing Degree Days 7 (Base 50)    
Moisture  
Dew Point 53 °F    
Average Humidity 86    
Maximum Humidity 100    
Minimum Humidity 72    
Precipitation  
Precipitation 0.01 in - 1.35 in (2014)
Month to date precipitation 0.61  
Year to date precipitation 8.33  
Since 1 July precipitation 0.68  
Sea Level Pressure  
Sea Level Pressure 30.05 in    
Wind  
Wind Speed 3 mph (SSW)    
Max Wind Speed 13 mph    
Max Gust Speed 15 mph    
Visibility 9 miles    
Events      
T = Trace of Precipitation, MM = Missing Value Source: NWS Daily Summary

Daily Weather History Graph

Daily Weather History Graph

Search for Another Location

Airport or City:

Trip Planner

Search our weather history database for the weather conditions in past years. The results will help you decide how hot, cold, wet, or windy it might be!

Date:

Astronomy

Oct. 31, 2012 Rise Set
Actual Time 7:30 AM PDT 6:10 PM PDT
Civil Twilight 7:03 AM PDT 6:37 PM PDT
Nautical Twilight 6:33 AM PDT 7:08 PM PDT
Astronomical Twilight 6:03 AM PDT 7:38 PM PDT
Moon 7:29 PM PDT (10/31) 9:13 AM PDT (10/31)
Length of Visible Light 11h 34m
Length of Day
10h 40m
Waning Gibbous, 97% of the Moon is Illuminated
Oct 31
Waning Gibbous
Nov 6
Last Quarter
Nov 13
New
Nov 20
First Quarter
Nov 28
Full

Hourly Weather History & Observations

Time (PDT) Temp. Dew Point Humidity Pressure Visibility Wind Dir Wind Speed Gust Speed Precip Events Conditions
12:54 AM 55.9 °F 53.1 °F 90% 30.05 in 10.0 mi Calm Calm - N/A   Overcast
1:54 AM 55.9 °F 53.1 °F 90% 30.05 in 10.0 mi WSW 4.6 mph - N/A   Overcast
2:54 AM 55.0 °F 53.1 °F 93% 30.06 in 10.0 mi SW 3.5 mph - N/A   Overcast
3:06 AM 53.6 °F 53.6 °F 100% 30.02 in 2.0 mi West 4.6 mph - N/A   Overcast
3:13 AM 53.6 °F 53.6 °F 100% 30.02 in 1.5 mi West 4.6 mph - N/A   Overcast
3:44 AM 53.6 °F 53.6 °F 100% 30.02 in 2.5 mi WSW 3.5 mph - 0.01 in   Overcast
3:54 AM 54.0 °F 54.0 °F 100% 30.05 in 3.0 mi Calm Calm - 0.01 in   Overcast
4:19 AM 53.6 °F 53.6 °F 100% 30.01 in 5.0 mi Calm Calm - N/A   Overcast
4:54 AM 55.0 °F 53.1 °F 93% 30.05 in 10.0 mi SE 3.5 mph - N/A   Overcast
5:09 AM 55.4 °F 53.6 °F 94% 30.01 in 10.0 mi ESE 5.8 mph - N/A   Overcast
5:54 AM 54.0 °F 52.0 °F 93% 30.04 in 10.0 mi ESE 4.6 mph - N/A   Mostly Cloudy
6:10 AM 53.6 °F 51.8 °F 94% 30.00 in 10.0 mi East 4.6 mph - N/A   Scattered Clouds
6:54 AM 52.0 °F 51.1 °F 97% 30.05 in 10.0 mi Calm Calm - N/A   Partly Cloudy
7:17 AM 53.6 °F 51.8 °F 94% 30.02 in 10.0 mi Calm Calm - N/A   Mostly Cloudy
7:54 AM 53.1 °F 52.0 °F 96% 30.07 in 10.0 mi Calm Calm - N/A   Overcast
8:05 AM 53.6 °F 51.8 °F 94% 30.04 in 10.0 mi Calm Calm - N/A   Overcast
8:31 AM 53.6 °F 51.8 °F 94% 30.04 in 10.0 mi Calm Calm - N/A   Overcast
8:54 AM 55.0 °F 52.0 °F 89% 30.08 in 10.0 mi ESE 3.5 mph - N/A   Scattered Clouds
9:09 AM 55.4 °F 53.6 °F 94% 30.06 in 10.0 mi Calm Calm - N/A   Mostly Cloudy
9:18 AM 55.4 °F 51.8 °F 88% 30.05 in 10.0 mi Calm Calm - N/A   Mostly Cloudy
9:54 AM 55.9 °F 54.0 °F 93% 30.09 in 10.0 mi Calm Calm - N/A   Overcast
10:54 AM 57.0 °F 53.1 °F 87% 30.09 in 10.0 mi Calm Calm - N/A   Overcast
11:29 AM 57.2 °F 53.6 °F 88% 30.07 in 10.0 mi WNW 3.5 mph - N/A   Overcast
11:54 AM 59.0 °F 54.0 °F 83% 30.11 in 10.0 mi WSW 5.8 mph - N/A   Overcast
12:54 PM 59.0 °F 54.0 °F 83% 30.09 in 10.0 mi WSW 3.5 mph - N/A   Overcast
1:27 PM 60.8 °F 53.6 °F 77% 30.04 in 10.0 mi SW 9.2 mph - N/A   Mostly Cloudy
1:39 PM 62.6 °F 53.6 °F 72% 30.04 in 10.0 mi SW 9.2 mph - N/A   Scattered Clouds
1:54 PM 62.1 °F 53.1 °F 72% 30.07 in 10.0 mi SW 9.2 mph - N/A   Clear
2:54 PM 62.1 °F 53.1 °F 72% 30.05 in 10.0 mi SW 9.2 mph - N/A   Scattered Clouds
3:54 PM 60.1 °F 53.1 °F 78% 30.04 in 10.0 mi SW 6.9 mph - N/A   Scattered Clouds
4:54 PM 60.1 °F 53.1 °F 78% 30.05 in 10.0 mi Calm Calm - N/A   Clear
5:54 PM 61.0 °F 52.0 °F 72% 30.04 in 10.0 mi Calm Calm - N/A   Clear
6:54 PM 59.0 °F 53.1 °F 81% 30.06 in 10.0 mi Calm Calm - N/A   Clear
8:54 PM 57.0 °F 54.0 °F 89% 30.06 in 10.0 mi Calm Calm - N/A   Clear
9:54 PM 57.0 °F 53.1 °F 87% 30.05 in 10.0 mi ESE 3.5 mph - N/A   Clear
10:54 PM 57.0 °F 53.1 °F 87% 30.06 in 10.0 mi Calm Calm - N/A   Clear
11:54 PM 57.0 °F 53.1 °F 87% 30.07 in 10.0 mi Calm Calm - N/A   Mostly Cloudy